星链-5494 (STARLINK-5494 )

导读 | 豆包AI

STARLINK-5494是美国太空探索技术公司星链卫星互联网项目的组网卫星,于2023年2月17日在美国发射升空,属于星链低轨星座。作为星链星座组网的组成部分,它承担着卫星互联网信号中继传输任务,支撑全球范围高速互联网接入服务,运行在近地轨道,助力星链星座完成全球覆盖布局。

基本信息
目录编号:
55650
目录名称:
STARLINK-5494
国际标识:
2023-021Y
轨道中心:
EARTH
卫星名称:
星链-5494
卫星全名:
星链-5494 (STARLINK-5494 )
卫星状态:
在轨 (已飞行1122 天)
发射日期:
2023-02-17 UTC
国别 :
美国 (US)
星等 :
--
轨道信息
数据来源 国际轨道数据
星历时间: 2026-03-15T01:01:21+0800
23小时前
查看轨道信息
半长轴: 6950.242km
偏心率: 0.0002598
轨道倾角: 70.002°
近地点辐角 257.364°
升交点赤经 171.788°
平近点角 102.723°
近地点: 570.299km
远地点: 573.911km
周期: 96.108分钟
每日圈数: 14.983143
详细信息
固有亮度:
5
最大亮度:
2.5
卫星平台:
Starlink v1.5
覆盖范围:
全球
运营商:
太空探索技术公司
运营商所在国:
美国
制造商(研发单位):
太空探索技术公司
制造商所在国:
美国
使用方式:
暂无
卫星简介
星链(Starlink)计划是由太空探索技术公司(SpaceX)提出的一个巨型低轨卫星互联网星座项目,计划在2019年至2024年间在太空搭建由约1.2万颗卫星组成的“星链”网络,其中1584颗将部署在地球上空550千米处的近地轨道,并从2020年开始工作。该卫星仍在工作。
2D轨道图
3D轨道图
轨道高度分析图
轨道倾角分析图
轨道综合分析图
查看轨道综合分析图